EW7356 Weather Reports


Display with metric or nautical units.
time (UTC)temp
F
wind
direction
speed
MPH
gust
MPH
rain 1hr
in
rain 24hr
in
rain mn
in
humidity
%
barometer
mb
20260507165527 52 298 6.0 23.0 0.00 0.60 0.00 47 1006.1
20260507165029 52 315 7.0 23.0 0.00 0.60 0.00 46 1006.2
20260507164539 53 264 9.0 21.0 0.00 0.60 0.00 51 1006.3
20260507164029 52 290 8.0 18.0 0.00 0.60 0.00 46 1006.2
20260507163531 52 288 10.0 18.0 0.00 0.60 0.00 45 1006.2
20260507163041 52 304 9.0 17.0 0.00 0.60 0.00 47 1006.3
20260507162535 52 277 5.0 11.0 0.00 0.60 0.00 51 1006.3
20260507162027 52 243 3.0 9.0 0.00 0.60 0.00 53 1006.4
20260507161546 52 40 3.0 19.0 0.00 0.60 0.00 50 1006.4
20260507161028 52 289 5.0 19.0 0.00 0.60 0.00 51 1006.5
20260507160530 52 344 8.0 19.0 0.00 0.60 0.00 50 1006.8
20260507160038 51 263 7.0 18.0 0.00 0.60 0.00 54 1006.7
20260507155532 50 16 5.0 18.0 0.00 0.60 0.00 56 1006.8
20260507155030 51 273 6.0 18.0 0.00 0.60 0.00 52 1006.8
20260507154540 51 293 6.0 18.0 0.00 0.60 0.00 53 1006.8
20260507154029 50 334 7.0 15.0 0.00 0.60 0.00 59 1006.9
20260507153532 50 217 7.0 15.0 0.00 0.60 0.00 54 1006.8
20260507153034 50 275 5.0 13.0 0.00 0.60 0.00 56 1006.8
20260507152529 50 271 7.0 13.0 0.00 0.60 0.00 56 1006.9
20260507152032 50 283 5.0 12.0 0.00 0.60 0.00 58 1006.9
20260507151533 49 260 3.0 14.0 0.00 0.60 0.00 60 1006.9
20260507151030 48 271 7.0 19.0 0.00 0.60 0.00 59 1007.1
20260507150528 49 257 9.0 19.0 0.00 0.60 0.00 56 1006.9
20260507150043 50 296 5.0 16.0 0.00 0.60 0.00 59 1007.0
20260507145528 49 266 3.0 25.0 0.00 0.60 0.00 63 1007.0
20260507145029 49 294 10.0 25.0 0.00 0.60 0.00 58 1007.0
20260507144539 49 286 7.0 15.0 0.00 0.60 0.00 63 1006.9
20260507144028 48 287 8.0 15.0 0.00 0.60 0.00 62 1006.8
20260507143529 48 346 5.0 15.0 0.00 0.60 0.00 65 1006.8
20260507143054 48 274 7.0 15.0 0.00 0.60 0.00 66 1006.8
20260507142529 48 296 7.0 14.0 0.00 0.60 0.00 69 1006.9
20260507142031 48 195 7.0 12.0 0.00 0.60 0.00 70 1006.9
20260507141549 47 319 5.0 12.0 0.00 0.60 0.00 73 1006.8
20260507141028 47 203 4.0 12.0 0.00 0.60 0.00 74 1006.7
20260507140530 47 267 5.0 12.0 0.00 0.60 0.00 72 1006.7
20260507140035 47 277 6.0 13.0 0.00 0.60 0.00 74 1006.8
20260507135531 47 304 5.0 13.0 0.00 0.60 0.00 77 1006.7
20260507135031 47 319 4.0 11.0 0.00 0.60 0.00 79 1006.8
20260507134544 47 236 3.0 11.0 0.00 0.60 0.00 84 1006.7
20260507134027 46 250 6.0 11.0 0.00 0.60 0.00 84 1006.7
20260507133528 45 302 4.0 11.0 0.00 0.60 0.00 83 1006.8
20260507133108 45 275 4.0 11.0 0.00 0.60 0.00 84 1006.8
20260507132536 45 282 3.0 10.0 0.00 0.60 0.00 86 1006.9
20260507132029 45 227 3.0 10.0 0.00 0.60 0.00 85 1007.0
20260507131545 45 308 5.0 10.0 0.00 0.60 0.00 85 1006.9
20260507131029 46 281 4.0 8.0 0.00 0.60 0.00 84 1007.0
20260507130532 46 267 3.0 8.0 0.00 0.60 0.00 86 1006.9
20260507130048 46 310 2.0 10.0 0.00 0.60 0.00 86 1007.0
20260507125528 45 265 3.0 10.0 0.00 0.60 0.00 87 1006.9
20260507125031 46 261 3.0 7.0 0.00 0.60 0.00 87 1007.0
20260507124535 45 241 2.0 7.0 0.00 0.60 0.00 90 1007.0
20260507124028 44 292 4.0 7.0 0.00 0.60 0.00 87 1007.0
20260507123536 44 266 2.0 8.0 0.00 0.60 0.00 89 1007.0
20260507123047 44 251 4.0 8.0 0.00 0.60 0.00 87 1006.9
20260507122527 44 236 3.0 8.0 0.00 0.60 0.00 88 1006.9
20260507122029 44 254 4.0 9.0 0.00 0.60 0.00 87 1006.9
20260507121542 44 234 3.0 9.0 0.00 0.60 0.00 89 1006.8
20260507121030 44 252 3.0 9.0 0.00 0.60 0.00 89 1006.8
20260507120529 43 258 3.0 9.0 0.00 0.60 0.00 91 1006.7
20260507120039 43 250 2.0 7.0 0.00 0.60 0.00 93 1006.7
20260507115550 42 329 2.0 5.0 0.00 0.60 0.00 94 1006.7
20260507115030 42 344 0.0 7.0 0.00 0.60 0.00 94 1006.8
20260507114545 42 0 1.0 7.0 0.00 0.60 0.00 94 1006.8
20260507114027 42 283 1.0 4.0 0.00 0.60 0.00 94 1006.8
20260507113529 41 265 2.0 4.0 0.00 0.60 0.00 95 1006.8
20260507113036 41 274 1.0 6.0 0.00 0.60 0.00 95 1006.7
20260507112529 41 277 2.0 6.0 0.00 0.60 0.00 95 1006.7
20260507112029 41 288 2.0 7.0 0.00 0.60 0.00 96 1006.7
20260507111542 41 256 1.0 7.0 0.00 0.60 0.00 96 1006.7
20260507111026 41 285 2.0 4.0 0.00 0.60 0.00 96 1006.7
20260507110528 41 265 1.0 6.0 0.00 0.60 0.00 96 1006.7
20260507110046 41 291 2.0 6.0 0.00 0.60 0.00 96 1006.7
20260507105529 40 270 2.0 6.0 0.00 0.60 0.00 96 1006.6
20260507105029 40 294 1.0 4.0 0.00 0.60 0.00 96 1006.7
20260507104540 40 0 1.0 6.0 0.00 0.60 0.00 96 1006.5
20260507104027 40 276 2.0 6.0 0.00 0.60 0.00 96 1006.6
20260507103529 39 0 1.0 3.0 0.00 0.60 0.00 96 1006.5
20260507103049 39 284 1.0 3.0 0.00 0.60 0.00 96 1006.5
20260507102529 39 0 1.0 3.0 0.00 0.60 0.00 96 1006.5
20260507102029 39 284 1.0 3.0 0.00 0.60 0.00 96 1006.4
20260507101546 39 288 0.0 4.0 0.00 0.60 0.00 96 1006.5
20260507101027 39 287 1.0 4.0 0.00 0.60 0.00 96 1006.5
20260507100527 39 257 1.0 3.0 0.00 0.60 0.00 95 1006.6
20260507100044 39 267 1.0 3.0 0.00 0.60 0.00 95 1006.4
20260507095527 39 267 1.0 3.0 0.00 0.60 0.00 95 1006.4
20260507095030 39 300 0.0 3.0 0.00 0.60 0.00 95 1006.4
20260507094553 39 279 0.0 3.0 0.00 0.60 0.00 95 1006.5
20260507094029 39 270 1.0 3.0 0.00 0.60 0.00 95 1006.5
20260507093529 39 257 1.0 4.0 0.00 0.60 0.00 95 1006.6
20260507093040 40 265 1.0 4.0 0.00 0.60 0.00 95 1006.4
20260507092528 40 243 1.0 4.0 0.00 0.60 0.00 95 1006.6
20260507092029 40 270 1.0 4.0 0.00 0.60 0.00 95 1006.6
20260507091535 40 264 1.0 4.0 0.00 0.60 0.00 95 1006.6
20260507091029 40 273 2.0 4.0 0.00 0.60 0.00 95 1006.8
20260507090526 39 257 0.0 3.0 0.00 0.60 0.00 94 1006.8
20260507090044 39 252 1.0 3.0 0.00 0.60 0.00 94 1006.7
20260507085527 40 0 1.0 4.0 0.00 0.60 0.00 94 1006.4
20260507085031 40 0 1.0 4.0 0.00 0.60 0.00 94 1006.3
20260507084541 40 322 1.0 4.0 0.00 0.60 0.00 94 1006.5
20260507084030 40 0 0.0 2.0 0.00 0.60 0.00 94 1006.5
20260507083531 40 0 0.0 3.0 0.00 0.60 0.00 94 1006.2
20260507083038 40 293 0.0 3.0 0.00 0.60 0.00 94 1006.6
20260507082531 40 302 0.0 6.0 0.00 0.60 0.00 94 1006.4
20260507082030 40 296 0.0 6.0 0.00 0.60 0.00 94 1006.3
20260507081542 40 276 0.0 6.0 0.00 0.60 0.00 94 1006.3
20260507081033 40 279 1.0 6.0 0.00 0.60 0.00 93 1006.3
20260507080529 41 311 0.0 3.0 0.00 0.60 0.00 93 1006.1
20260507080039 41 333 0.0 4.0 0.00 0.60 0.00 93 1006.3
20260507075532 41 336 0.0 4.0 0.00 0.60 0.00 93 1006.5
20260507075031 41 277 2.0 4.0 0.00 0.60 0.00 94 1006.5
20260507074548 41 290 1.0 4.0 0.00 0.60 0.00 94 1006.2
20260507074030 41 328 1.0 6.0 0.00 0.60 0.00 93 1006.2
20260507073531 41 338 1.0 7.0 0.00 0.60 0.00 93 1006.1
20260507073048 41 321 2.0 7.0 0.00 0.60 0.00 93 1006.2
20260507072531 41 275 1.0 4.0 0.00 0.60 0.00 93 1006.4
20260507072030 41 259 1.0 4.0 0.00 0.60 0.00 93 1006.1
20260507071542 41 263 1.0 4.0 0.00 0.60 0.00 93 1005.6
20260507071030 41 302 1.0 4.0 0.00 0.60 0.00 93 1005.8
20260507070530 41 305 1.0 6.0 0.00 0.60 0.00 93 1005.8
20260507070049 42 268 2.0 8.0 0.00 0.60 0.00 93 1005.8
20260507065527 42 302 2.0 8.0 0.00 0.60 0.00 93 1005.6
20260507065027 42 305 3.0 6.0 0.00 0.60 0.00 93 1005.6
20260507064546 42 284 2.0 6.0 0.00 0.60 0.00 93 1005.7
20260507064032 42 9 2.0 6.0 0.00 0.60 0.00 93 1005.8
20260507063529 42 340 2.0 6.0 0.00 0.60 0.00 93 1005.9
20260507063039 42 333 2.0 5.0 0.00 0.60 0.00 93 1006.1
20260507062530 42 336 2.0 7.0 0.00 0.60 0.00 94 1006.0
20260507062032 42 296 2.0 7.0 0.00 0.60 0.00 93 1005.9
20260507061545 42 269 2.0 7.0 0.00 0.60 0.00 94 1005.9
20260507061030 42 267 2.0 6.0 0.00 0.60 0.00 93 1005.9
20260507060530 42 342 2.0 7.0 0.00 0.60 0.00 93 1005.9
20260507060042 42 285 2.0 7.0 0.00 0.60 0.00 93 1006.1
20260507055531 42 0 3.0 9.0 0.00 0.60 0.00 94 1006.1
20260507055031 42 272 2.0 9.0 0.00 0.60 0.00 94 1006.0
20260507054540 42 309 4.0 10.0 0.00 0.60 0.00 94 1006.1
20260507054034 42 265 3.0 10.0 0.00 0.60 0.00 94 1006.3
20260507053531 42 339 3.0 10.0 0.00 0.60 0.00 94 1006.4
20260507053040 42 329 3.0 10.0 0.00 0.60 0.00 94 1006.5
20260507052530 43 313 3.0 10.0 0.00 0.60 0.00 94 1006.3
20260507052030 43 333 3.0 8.0 0.00 0.60 0.00 94 1006.0
20260507051540 43 250 3.0 8.0 0.00 0.60 0.00 94 1006.2
20260507051029 43 294 2.0 6.0 0.00 0.60 0.00 94 1006.2
20260507050529 43 331 2.0 6.0 0.00 0.60 0.00 94 1005.8
20260507050039 43 292 3.0 7.0 0.00 0.60 0.00 94 1006.2
20260507045530 43 277 3.0 8.0 0.00 0.60 0.00 94 1006.2
20260507045029 43 258 3.0 8.0 0.00 0.60 0.00 94 1006.2
20260507044548 43 265 2.0 8.0 0.00 0.60 0.00 94 1005.9
20260507044032 43 272 1.0 4.0 0.01 0.60 0.00 94 1006.0
20260507043530 43 313 1.0 6.0 0.01 0.60 0.00 94 1006.1
20260507043042 43 314 2.0 6.0 0.01 0.60 0.00 94 1006.1
20260507042529 43 323 1.0 7.0 0.01 0.60 0.00 94 1006.2
20260507042033 43 246 1.0 7.0 0.01 0.60 0.00 94 1006.2
20260507041545 43 272 1.0 8.0 0.01 0.60 0.00 94 1006.1
20260507041030 43 0 2.0 10.0 0.01 0.60 0.00 94 1006.0
20260507040530 43 311 2.0 10.0 0.01 0.60 0.00 94 1006.1
20260507040051 43 259 3.0 11.0 0.01 0.60 0.00 93 1006.0
20260507035534 43 299 4.0 11.0 0.02 0.60 0.60 93 1006.0
20260507035029 44 287 2.0 11.0 0.02 0.60 0.60 93 1006.0
20260507034543 44 284 5.0 11.0 0.02 0.60 0.60 93 1006.0
20260507034029 44 11 4.0 11.0 0.01 0.58 0.58 94 1006.2
20260507033531 44 306 3.0 11.0 0.01 0.58 0.58 94 1006.2
20260507033058 44 236 3.0 11.0 0.01 0.58 0.58 93 1006.1
20260507032530 44 317 4.0 11.0 0.01 0.58 0.58 93 1006.0
20260507032038 44 302 3.0 11.0 0.02 0.58 0.58 93 1006.1
20260507031553 44 275 3.0 15.0 0.02 0.58 0.58 94 1005.9
20260507031029 44 315 4.0 15.0 0.02 0.58 0.58 93 1006.0
20260507030530 44 360 6.0 15.0 0.02 0.58 0.58 93 1006.0
20260507030101 45 329 4.0 9.0 0.03 0.58 0.58 94 1006.1
20260507025529 45 327 4.0 12.0 0.02 0.58 0.58 94 1006.1
20260507025031 45 278 4.0 12.0 0.02 0.58 0.58 94 1006.0
20260507024555 45 317 4.0 12.0 0.02 0.58 0.58 94 1006.0
20260507024030 46 307 3.0 10.0 0.02 0.58 0.58 94 1006.0
20260507023529 46 287 4.0 11.0 0.03 0.58 0.58 94 1005.9
20260507023033 46 339 5.0 11.0 0.04 0.58 0.58 94 1005.9
20260507022529 46 340 5.0 11.0 0.04 0.58 0.58 94 1005.9
20260507022031 46 253 4.0 11.0 0.04 0.57 0.57 95 1006.1
20260507021550 46 290 3.0 10.0 0.04 0.57 0.57 95 1006.0
20260507021031 47 294 3.0 10.0 0.05 0.57 0.57 95 1005.8
20260507020531 47 319 2.0 11.0 0.05 0.57 0.57 95 1006.0
20260507020053 47 308 5.0 11.0 0.04 0.56 0.56 94 1006.0
20260507015530 47 292 4.0 10.0 0.04 0.56 0.56 94 1006.0
20260507015030 47 260 4.0 10.0 0.04 0.56 0.56 94 1005.9
20260507014549 47 288 4.0 10.0 0.04 0.56 0.56 94 1005.8
20260507014030 47 242 4.0 12.0 0.04 0.56 0.56 94 1005.7
20260507013530 47 267 4.0 13.0 0.04 0.55 0.55 94 1005.7
20260507013039 47 252 5.0 15.0 0.03 0.54 0.54 94 1005.6
20260507012534 48 274 6.0 15.0 0.03 0.54 0.54 93 1005.7
20260507012031 48 259 5.0 15.0 0.02 0.52 0.52 94 1005.5
20260507011547 49 344 4.0 13.0 0.02 0.52 0.52 94 1005.4
20260507011031 49 298 3.0 10.0 0.01 0.52 0.52 94 1005.4
20260507010531 49 301 4.0 9.0 0.01 0.52 0.52 94 1005.2
20260507010045 49 336 3.0 10.0 0.01 0.52 0.52 93 1005.2
20260507005532 50 334 4.0 11.0 0.02 0.52 0.52 93 1005.3
20260507005034 50 266 4.0 11.0 0.03 0.52 0.52 93 1005.2
20260507004539 50 10 4.0 9.0 0.04 0.52 0.52 94 1005.2
20260507004030 51 317 3.0 9.0 0.06 0.52 0.52 94 1005.0
20260507003531 51 280 1.0 7.0 0.08 0.51 0.51 94 1005.1
20260507003039 51 259 2.0 8.0 0.12 0.51 0.51 94 1004.8
20260507002530 51 279 1.0 8.0 0.20 0.51 0.51 94 1004.7
20260507002030 52 253 4.0 8.0 0.21 0.51 0.51 94 1004.6
20260507001543 52 267 3.0 7.0 0.21 0.51 0.51 94 1004.4
20260507001029 52 292 2.0 10.0 0.21 0.51 0.51 94 1004.4
20260507000532 52 256 4.0 10.0 0.21 0.51 0.51 93 1004.4
20260507000044 53 288 2.0 13.0 0.21 0.51 0.51 93 1004.1
20260506235530 53 331 3.0 13.0 0.20 0.50 0.50 93 1003.9
20260506235030 54 0 4.0 13.0 0.20 0.49 0.49 92 1003.9
20260506234604 55 297 8.0 13.0 0.19 0.48 0.48 92 1003.7
20260506234034 56 307 4.0 12.0 0.17 0.46 0.46 95 1003.7
20260506233531 57 288 1.0 6.0 0.14 0.43 0.43 95 1003.6
20260506233047 57 273 2.0 4.0 0.08 0.37 0.37 95 1003.5
20260506232532 57 238 2.0 4.0 0.02 0.31 0.31 94 1003.4
20260506232030 57 208 1.0 4.0 0.01 0.30 0.30 94 1003.3
20260506231552 57 232 1.0 6.0 0.02 0.30 0.30 94 1003.2
20260506231029 57 231 2.0 8.0 0.02 0.30 0.30 94 1003.3
20260506230533 57 187 3.0 8.0 0.02 0.30 0.30 94 1003.3
20260506230038 57 279 3.0 8.0 0.02 0.30 0.30 94 1003.4
20260506225530 57 205 3.0 10.0 0.02 0.30 0.30 93 1003.5
20260506225032 58 247 4.0 10.0 0.01 0.29 0.29 93 1003.4
20260506224541 58 223 1.0 2.0 0.01 0.29 0.29 94 1003.3
20260506224031 58 223 0.0 2.0 0.01 0.29 0.29 94 1003.3
20260506223532 58 0 0.0 3.0 0.01 0.29 0.29 93 1003.3
20260506223042 58 223 0.0 4.0 0.01 0.29 0.29 93 1003.4
20260506222530 58 217 1.0 5.0 0.01 0.29 0.29 93 1003.3
20260506222030 58 188 1.0 6.0 0.01 0.29 0.29 92 1003.3
20260506221539 58 178 1.0 8.0 0.00 0.28 0.28 92 1003.3
20260506221030 58 222 3.0 8.0 0.00 0.28 0.28 92 1003.3
20260506220530 58 178 3.0 8.0 0.00 0.28 0.28 92 1003.2
20260506220039 58 190 3.0 8.0 0.00 0.28 0.28 92 1003.2
20260506215530 59 177 3.0 9.0 0.00 0.29 0.28 92 1003.2
20260506215030 59 189 4.0 10.0 0.00 0.29 0.28 92 1003.1
20260506214545 59 201 4.0 10.0 0.00 0.29 0.28 92 1003.1
20260506214034 59 167 4.0 9.0 0.00 0.29 0.28 91 1003.2
20260506213533 59 143 4.0 8.0 0.00 0.29 0.28 91 1003.2
20260506213043 59 178 4.0 13.0 0.00 0.29 0.28 91 1003.3
20260506212530 59 239 4.0 13.0 0.00 0.29 0.28 90 1003.2
20260506212031 59 194 6.0 13.0 0.00 0.29 0.28 90 1003.4
20260506211541 59 200 5.0 12.0 0.00 0.29 0.28 91 1003.4
20260506211030 59 175 5.0 13.0 0.00 0.29 0.28 91 1003.4
20260506210531 59 218 4.0 14.0 0.00 0.29 0.28 91 1003.4
20260506210040 59 207 5.0 14.0 0.00 0.29 0.28 91 1003.4
20260506205533 59 165 7.0 14.0 0.00 0.29 0.28 91 1003.4
20260506205030 58 215 7.0 14.0 0.00 0.29 0.28 92 1003.3
20260506204539 59 175 5.0 14.0 0.00 0.29 0.28 92 1003.4
20260506204031 58 181 8.0 13.0 0.00 0.29 0.28 92 1003.5
20260506203532 59 190 4.0 18.0 0.00 0.29 0.28 93 1003.6
20260506203039 58 183 7.0 18.0 0.00 0.29 0.28 92 1003.5
20260506202530 58 205 4.0 8.0 0.00 0.29 0.28 93 1003.5
20260506202030 58 142 3.0 10.0 0.00 0.29 0.28 94 1003.5
20260506201541 58 177 6.0 10.0 0.01 0.29 0.28 94 1003.6
20260506201029 58 170 3.0 12.0 0.03 0.29 0.28 94 1003.7
20260506200530 58 180 5.0 12.0 0.05 0.29 0.28 94 1003.7
20260506200040 58 148 5.0 10.0 0.06 0.29 0.28 94 1003.7
20260506195533 58 119 3.0 9.0 0.07 0.29 0.28 94 1003.7
20260506195032 58 171 3.0 9.0 0.07 0.29 0.28 94 1003.9
20260506194539 58 159 3.0 7.0 0.08 0.29 0.28 94 1004.0
20260506194030 58 138 3.0 7.0 0.09 0.29 0.28 94 1004.0
20260506193529 58 147 2.0 7.0 0.10 0.29 0.28 94 1004.2
20260506193037 58 204 2.0 5.0 0.10 0.29 0.28 94 1004.3
20260506192529 58 160 2.0 6.0 0.10 0.29 0.28 94 1004.2
20260506192034 58 154 1.0 6.0 0.10 0.28 0.27 94 1004.3
20260506191535 58 248 2.0 5.0 0.10 0.28 0.27 94 1004.5
20260506191030 58 206 0.0 5.0 0.09 0.26 0.25 94 1004.5
20260506190530 58 0 1.0 5.0 0.08 0.24 0.23 94 1004.4
20260506190043 58 148 2.0 7.0 0.07 0.23 0.22 94 1004.5
20260506185530 58 195 3.0 7.0 0.07 0.22 0.21 94 1004.6
20260506185029 58 178 3.0 8.0 0.08 0.22 0.21 93 1004.7
20260506184546 58 174 3.0 8.0 0.08 0.21 0.20 93 1004.8
20260506184030 58 219 3.0 8.0 0.09 0.20 0.19 93 1004.8
20260506183530 58 140 4.0 8.0 0.09 0.19 0.18 93 1004.8
20260506183039 59 173 3.0 9.0 0.10 0.19 0.18 93 1004.8
20260506182529 59 167 1.0 10.0 0.11 0.19 0.18 93 1004.6
20260506182029 59 165 4.0 10.0 0.11 0.18 0.17 93 1005.2
20260506181539 59 157 4.0 13.0 0.12 0.18 0.17 92 1005.2
20260506181029 59 177 6.0 13.0 0.12 0.17 0.16 92 1005.4
20260506180529 59 218 2.0 10.0 0.11 0.16 0.15 93 1005.4
20260506180037 58 188 5.0 10.0 0.12 0.16 0.15 92 1005.4
20260506175528 59 209 4.0 10.0 0.11 0.15 0.14 93 1005.7
20260506175028 59 201 2.0 10.0 0.11 0.14 0.13 92 1005.8
20260506174538 59 190 2.0 9.0 0.11 0.13 0.12 93 1005.7
20260506174034 59 182 4.0 9.0 0.09 0.11 0.10 92 1005.8
20260506173530 59 169 4.0 8.0 0.09 0.10 0.09 92 1005.8
20260506173117 59 164 3.0 8.0 0.08 0.09 0.08 92 1005.9
20260506172534 59 134 1.0 5.0 0.07 0.08 0.07 92 1005.9
20260506172030 59 194 2.0 5.0 0.06 0.07 0.06 91 1005.9
20260506171545 59 184 1.0 4.0 0.05 0.06 0.05 91 1005.8
20260506171033 59 162 1.0 4.0 0.04 0.05 0.04 90 1005.8
20260506170529 59 196 1.0 4.0 0.04 0.05 0.04 90 1005.9
20260506170050 60 158 1.0 7.0 0.03 0.04 0.03 89 1005.9